[[{"header":{"parameterUnit":"m.s-1","parameterCategory":1,"la1":30.2991,"la2":30.254,"lo1":-89.0895,"lo2":-89.0444,"dy":0.0017,"dx":0.0017,"nx":28,"ny":28,"refTime":"2024-04-05T09:00:00:Z","depth":0,"parameterNumber":2,"parameterNumberName":"U-component_of_WINDS"},"data":[0,0,0,0,0,0,0,0,0,0,0,0,0,0,0,0,0,0,0,0,0,0,0,0,0,0,0,0,0,0,0,0,0,0,0,0,0,0,0,0,0,0,0,0,0,0,0,0,0,0,0,0,0,0,0,0,0,0,-1.395,-1.395,0,-1.3952,-1.3952,-1.3952,-1.3918,-1.3917,-1.3916,-1.3915,-1.3919,-1.392,-1.3921,0,0,0,0,0,0,0,0,0,0,0,0,0,-1.3919,-1.392,-1.395,-1.395,-1.395,-1.3952,-1.3952,-1.3952,-1.3918,-1.3917,-1.3916,-1.3915,-1.3918,-1.392,-1.3921,0,0,0,0,0,0,0,0,0,0,0,0,0,-1.3928,-1.392,-1.395,-1.3933,-1.3932,-1.3952,-1.3952,-1.3952,-1.3919,-1.3917,-1.3916,-1.3915,-1.3918,-1.3919,-1.3921,-1.3957,0,0,-1.3925,-1.3926,0,0,0,0,0,0,0,0,-1.3927,-1.3929,-1.3936,-1.3935,-1.3933,-1.3933,-1.3942,-1.3953,-1.3919,-1.3924,-1.3915,-1.3914,-1.3925,-1.3925,-1.3929,-1.3957,-1.3957,-1.3925,-1.3926,-1.3927,-1.3927,0,0,0,0,0,0,0,-1.3927,-1.3929,-1.3951,-1.3936,-1.3934,-1.3926,-1.3926,-1.3944,-1.3932,-1.3923,-1.3921,-1.3921,-1.3924,-1.3928,-1.3929,-1.3957,-1.3925,-1.3926,-1.3927,-1.3928,-1.4014,-1.4016,0,0,0,0,0,0,-1.3928,-1.3928,-1.395,-1.3951,-1.3927,-1.3928,-1.3928,-1.3935,-1.3932,-1.393,-1.3922,-1.392,-1.3926,-1.3927,-1.3929,-1.397,-1.3927,-1.3928,-1.3929,-1.4013,-1.4015,-1.4016,0,0,0,0,0,0,-1.3928,-1.3931,-1.395,-1.3939,-1.3941,-1.393,-1.3938,-1.3935,-1.3939,-1.3931,-1.3929,-1.3929,-1.3925,-1.3927,-1.395,-1.397,-1.3929,-1.393,-1.4011,-1.4014,-1.4016,-1.4054,0,0,0,0,0,0,-1.3927,-1.3931,-1.3944,-1.3939,-1.3942,-1.3971,-1.3939,-1.3936,-1.3941,-1.3938,-1.3936,-1.3935,-1.3924,-1.3948,-1.3951,-1.3971,-1.3931,-1.4009,-1.4012,-1.4015,-1.4051,-1.4057,-1.4063,0,0,0,0,0,-1.3926,-1.3955,-1.3945,-1.3947,-1.3958,-1.3972,-1.3974,-1.396,-1.3943,-1.3957,-1.3951,-1.3935,-1.3967,-1.3951,-1.3954,-1.3975,-1.4008,-1.4011,-1.4015,-1.4048,-1.4056,-1.4063,0,0,0,0,0,0,-1.3963,-1.3954,-1.3942,-1.3971,-1.3973,-1.3967,-1.3983,-1.3969,-1.3976,-1.3973,-1.3956,-1.3956,-1.3982,-1.3981,-1.3962,-1.4009,-1.3985,-1.3989,-1.4009,-1.4017,-1.4022,-1.4022,-1.3932,0,0,0,0,0,-1.3974,-1.3986,-1.3978,-1.4004,-1.4005,-1.3994,-1.4,-1.399,-1.3991,-1.3992,-1.3988,-1.3991,-1.4001,-1.4009,-1.4018,-1.4051,-1.405,-1.4067,-1.4073,-1.4078,-1.4081,-1.4098,-1.4106,-1.4027,-1.4027,-1.4027,0,0,-1.3997,-1.3994,-1.4003,-1.4011,-1.4011,-1.4025,-1.3995,-1.4011,-1.402,-1.3994,-1.4016,-1.4013,-1.4015,-1.4043,-1.4055,-1.4043,-1.4103,-1.4082,-1.4086,-1.4087,-1.4103,-1.411,-1.4117,-1.4029,-1.4029,-1.4029,0,0,-1.4047,-1.4046,-1.4067,-1.4068,-1.4068,-1.406,-1.4066,-1.4062,-1.4059,-1.408,-1.4061,-1.4073,-1.4092,-1.4094,-1.4097,-1.4147,-1.4132,-1.4151,-1.4182,-1.4199,-1.4205,-1.421,-1.4228,-1.4235,-1.4155,-1.4155,-1.4155,0,-1.4076,-1.4095,-1.408,-1.4096,-1.4101,-1.4077,-1.4099,-1.41,-1.4104,-1.4108,-1.4094,-1.4117,-1.4116,-1.4144,-1.4156,-1.416,-1.4166,-1.4151,-1.4205,-1.4211,-1.4215,-1.4232,-1.4239,-1.4157,-1.4157,-1.4157,-1.4157,0,-1.4131,-1.4145,-1.4162,-1.4166,-1.4172,-1.4191,-1.4179,-1.4187,-1.4176,-1.417,-1.4192,-1.4191,-1.4199,-1.4205,-1.4195,-1.4232,-1.4224,-1.4208,-1.4183,-1.4225,-1.4241,-1.4248,-1.416,-1.416,-1.4159,-1.4158,0,0,-1.4204,-1.4199,-1.4205,-1.4207,-1.4205,-1.4216,-1.4234,-1.4242,-1.4249,-1.4253,-1.4268,-1.4284,-1.4269,-1.4273,-1.4263,-1.4278,-1.4318,-1.4259,-1.4259,-1.427,-1.4358,-1.4371,-1.4378,-1.4308,-1.4309,-1.431,-1.4358,0,-1.4253,-1.4283,-1.4269,-1.4301,-1.4313,-1.4291,-1.4307,-1.4308,-1.4303,-1.4313,-1.4308,-1.432,-1.4299,-1.4301,-1.4315,-1.431,-1.4335,-1.4306,-1.4322,-1.4323,-1.4322,-1.4387,-1.44,-1.4445,-1.4364,-1.4365,-1.4366,0,-1.4313,-1.4318,-1.4351,-1.4347,-1.4352,-1.4366,-1.4373,-1.4382,-1.4383,-1.4379,-1.4383,-1.437,-1.4388,-1.4363,-1.4387,-1.4368,-1.4374,-1.4372,-1.4374,-1.4375,-1.4347,-1.4389,-1.446,-1.4467,-1.4376,-1.4375,-1.4374,0,-1.4363,-1.4378,-1.44,-1.4402,-1.4398,-1.4409,-1.4408,-1.4407,-1.4413,-1.4418,-1.4422,-1.443,-1.4434,-1.4441,-1.443,-1.4413,-1.4456,-1.443,-1.4453,-1.4454,-1.4463,-1.4463,-1.4536,-1.4467,-1.4467,-1.4467,-1.4467,0,-1.4419,-1.444,-1.4422,-1.4436,-1.4459,-1.4443,-1.4466,-1.4463,-1.4463,-1.4475,-1.4457,-1.4469,-1.4454,-1.4465,-1.4456,-1.4478,-1.448,-1.4477,-1.4475,-1.4479,-1.448,-1.4483,-1.4479,-1.4469,-1.4468,-1.4468,-1.4468,0,-1.4478,-1.4468,-1.449,-1.4484,-1.4483,-1.45,-1.4496,-1.4508,-1.4501,-1.4518,-1.4521,-1.4511,-1.4523,-1.4512,-1.4524,-1.4518,-1.4547,-1.454,-1.4547,-1.4545,-1.4568,-1.4566,-1.4646,-1.4655,-1.458,-1.4581,-1.4582,0,-1.4515,-1.453,-1.4526,-1.4533,-1.4532,-1.4544,-1.4549,-1.4535,-1.4541,-1.4543,-1.4556,-1.4566,-1.4573,-1.4593,-1.4588,-1.4596,-1.4589,-1.4617,-1.4591,-1.4594,-1.459,-1.4589,-1.4591,-1.4622,-1.4623,-1.4624,-1.4624,0,-1.458,-1.4574,-1.4582,-1.4588,-1.4595,-1.46,-1.4603,-1.461,-1.4595,-1.4603,-1.4615,-1.4621,-1.4632,-1.4643,-1.465,-1.4649,-1.4635,-1.4632,-1.4638,-1.4643,-1.4646,-1.4644,-1.4561,-1.4631,-1.463,-1.463,-1.4629,-1.4629,-1.4629,-1.4642,-1.4641,-1.465,-1.4651,-1.4654,-1.4666,-1.466,-1.4669,-1.4677,-1.4668,-1.4683,-1.4683,-1.4691,-1.4692,-1.4703,-1.4692,-1.47,-1.4702,-1.4705,-1.4708,-1.4644,-1.4704,-1.4704,-1.4704,-1.4704,-1.4704,0,-1.4694,-1.4692,-1.4701,-1.4705,-1.4713,-1.4698,-1.4701,-1.4708,-1.4721,-1.4722,-1.473,-1.4743,-1.4753,-1.4748,-1.4757,-1.4767,-1.476,-1.477,-1.4769,-1.4769,-1.4718,-1.4712,-1.4775,-1.4775,-1.4775,-1.4775,-1.4775,-1.4775,-1.4728,-1.4749,-1.4742,-1.4763,-1.4761,-1.4774,-1.4777,-1.478,-1.4781,-1.4797,-1.4805,-1.4801,-1.48,-1.4809,-1.4817,-1.4815,-1.482,-1.4831,-1.4827,-1.478,-1.4773,-1.4766,-1.476,-1.4832,-1.4832,-1.4878,-1.4878,-1.4878]},{"header":{"parameterUnit":"m.s-1","parameterCategory":1,"la1":30.2991,"la2":30.254,"lo1":-89.0895,"lo2":-89.0444,"dy":0.0017,"dx":0.0017,"nx":28,"ny":28,"refTime":"2024-04-05T09:00:00:Z","depth":0,"parameterNumber":3,"parameterNumberName":"V-component_of_WINDS"},"data":[0,0,0,0,0,0,0,0,0,0,0,0,0,0,0,0,0,0,0,0,0,0,0,0,0,0,0,0,0,0,0,0,0,0,0,0,0,0,0,0,0,0,0,0,0,0,0,0,0,0,0,0,0,0,0,0,0,0,3.3994,3.3994,0,3.3981,3.3981,3.3981,3.3904,3.3903,3.3901,3.3899,3.3887,3.3888,3.3889,0,0,0,0,0,0,0,0,0,0,0,0,0,3.3952,3.3953,3.3994,3.3994,3.3993,3.3981,3.3981,3.3981,3.3905,3.3903,3.39,3.3898,3.3886,3.3888,3.3889,0,0,0,0,0,0,0,0,0,0,0,0,0,3.3958,3.3954,3.3994,3.3954,3.395,3.3981,3.3981,3.3981,3.3905,3.3903,3.39,3.3897,3.3886,3.3888,3.389,3.3958,0,0,3.3896,3.3897,0,0,0,0,0,0,0,0,3.3958,3.396,3.396,3.3957,3.3953,3.3941,3.3961,3.3973,3.3906,3.3922,3.3899,3.3896,3.3907,3.3907,3.3911,3.3957,3.3956,3.3896,3.3897,3.3898,3.3899,0,0,0,0,0,0,0,3.3958,3.396,3.3989,3.396,3.3956,3.3937,3.3935,3.3963,3.393,3.3921,3.3915,3.3915,3.3905,3.3909,3.391,3.3956,3.3896,3.3898,3.3899,3.39,3.4055,3.4058,0,0,0,0,0,0,3.3963,3.396,3.3989,3.3988,3.3949,3.394,3.3937,3.3948,3.393,3.3924,3.3917,3.3911,3.3907,3.3908,3.3909,3.3986,3.3898,3.39,3.3901,3.4052,3.4056,3.4059,0,0,0,0,0,0,3.3962,3.3966,3.399,3.3973,3.3974,3.3943,3.3956,3.3949,3.3953,3.3927,3.3921,3.3928,3.3905,3.3906,3.3946,3.3984,3.3901,3.3903,3.4049,3.4053,3.4057,3.414,0,0,0,0,0,0,3.3961,3.3966,3.3992,3.3974,3.3975,3.4026,3.3958,3.3951,3.3957,3.3949,3.3935,3.393,3.3903,3.3943,3.3948,3.3986,3.3905,3.4045,3.4051,3.4056,3.4134,3.4147,3.4158,0,0,0,0,0,3.396,3.4016,3.3994,3.3997,3.4007,3.4029,3.403,3.3996,3.3961,3.3986,3.3969,3.3931,3.398,3.3948,3.3952,3.3991,3.4043,3.4049,3.4056,3.4128,3.4144,3.4158,0,0,0,0,0,0,3.404,3.4013,3.3988,3.404,3.4037,3.4016,3.4047,3.4015,3.4022,3.4015,3.3973,3.3971,3.4016,3.4008,3.3972,3.4055,3.4005,3.4012,3.4058,3.4073,3.4085,3.4085,3.3906,0,0,0,0,0,3.4064,3.4084,3.406,3.4108,3.4108,3.4078,3.4086,3.4061,3.4056,3.4055,3.4041,3.4038,3.4052,3.4063,3.4075,3.4133,3.4128,3.4162,3.4174,3.4184,3.4191,3.4219,3.4233,3.408,3.408,3.408,0,0,3.4114,3.4101,3.4117,3.4124,3.4119,3.414,3.4077,3.4103,3.4118,3.4059,3.4094,3.4084,3.4078,3.4126,3.4147,3.4121,3.4232,3.4192,3.4201,3.4202,3.4227,3.4242,3.4254,3.4085,3.4084,3.4083,0,0,3.4214,3.4207,3.4246,3.4242,3.4234,3.4214,3.4223,3.4206,3.4197,3.4232,3.4187,3.4205,3.4231,3.4228,3.423,3.4328,3.4293,3.4334,3.4396,3.4424,3.4436,3.4446,3.4479,3.4492,3.4341,3.4341,3.4341,0,3.4276,3.4306,3.427,3.4297,3.4301,3.4248,3.4286,3.4284,3.4282,3.4285,3.4257,3.4287,3.428,3.4326,3.4349,3.4354,3.4362,3.4334,3.4437,3.4447,3.4456,3.4487,3.45,3.4346,3.4345,3.4345,3.4344,0,3.4382,3.4403,3.4435,3.4432,3.444,3.4473,3.4442,3.4454,3.4428,3.441,3.4446,3.4435,3.4443,3.4452,3.4428,3.4495,3.4478,3.4444,3.4392,3.4476,3.4505,3.4516,3.4353,3.4351,3.4349,3.4348,0,0,3.4532,3.4508,3.452,3.4517,3.4505,3.4521,3.4551,3.4558,3.4569,3.4569,3.4592,3.4615,3.4583,3.4585,3.456,3.4585,3.4661,3.4547,3.4546,3.4567,3.4731,3.4756,3.477,3.4638,3.464,3.4642,3.4731,0,3.4626,3.4675,3.4643,3.4697,3.4716,3.4666,3.4692,3.4687,3.4671,3.4685,3.4668,3.4684,3.4641,3.4642,3.4664,3.4647,3.4693,3.464,3.4658,3.466,3.4659,3.4785,3.4812,3.4896,3.4742,3.4744,3.4746,0,3.4742,3.4745,3.4802,3.4784,3.479,3.4814,3.4817,3.4831,3.4824,3.4811,3.4814,3.4782,3.4809,3.476,3.4797,3.4762,3.4768,3.476,3.4763,3.4761,3.4706,3.4786,3.4922,3.4934,3.4763,3.4762,3.476,0,3.4843,3.4862,3.4897,3.4897,3.4878,3.4896,3.4889,3.4879,3.4885,3.4888,3.4891,3.4898,3.4901,3.4907,3.4878,3.4845,3.4918,3.4867,3.4907,3.4908,3.4923,3.4922,3.5061,3.4931,3.4931,3.493,3.493,0,3.495,3.4985,3.4942,3.4964,3.5002,3.4965,3.5004,3.4991,3.4983,3.5001,3.4959,3.4977,3.4938,3.4952,3.4929,3.4962,3.4965,3.4954,3.4947,3.4957,3.4958,3.4959,3.4951,3.4934,3.4933,3.4932,3.4932,0,3.5068,3.5041,3.5075,3.5054,3.5049,3.5078,3.506,3.5079,3.5061,3.5084,3.5087,3.5058,3.5072,3.5044,3.5055,3.5039,3.5085,3.507,3.5087,3.5082,3.5123,3.5119,3.5265,3.5282,3.5144,3.5145,3.5146,0,3.5137,3.5163,3.5144,3.5153,3.5148,3.5163,3.5168,3.5133,3.514,3.5133,3.5153,3.5163,3.5169,3.5194,3.5174,3.5182,3.5165,3.5216,3.5166,3.5174,3.5163,3.5161,3.5163,3.5226,3.5227,3.5229,3.523,0,3.5262,3.5247,3.5256,3.526,3.5267,3.5269,3.5268,3.5277,3.5239,3.525,3.5263,3.5268,3.5278,3.5288,3.5291,3.5283,3.525,3.5246,3.5255,3.5264,3.5272,3.5266,3.5113,3.5242,3.5241,3.524,3.524,3.5239,3.5356,3.5376,3.5365,3.5376,3.5371,3.5371,3.5387,3.537,3.538,3.5385,3.5364,3.5381,3.5373,3.5373,3.5369,3.5382,3.5359,3.5374,3.5377,3.538,3.5386,3.5272,3.5383,3.5383,3.5382,3.5382,3.5382,0,3.5477,3.5467,3.5478,3.5477,3.5485,3.5453,3.545,3.5459,3.5475,3.5469,3.5476,3.549,3.55,3.5481,3.5487,3.5501,3.5486,3.5504,3.5502,3.55,3.5407,3.5397,3.5516,3.5516,3.5516,3.5516,3.5516,3.5516,3.5541,3.5572,3.5555,3.5584,3.5574,3.559,3.559,3.5589,3.5585,3.5602,3.561,3.5597,3.5586,3.5591,3.5598,3.5592,3.5596,3.5619,3.5607,3.552,3.5507,3.5494,3.5485,3.562,3.562,3.5699,3.57,3.57]}]]